GOES 15 [+]

Last updated on Sept. 9, 2020, 5:41 a.m. UTC

1 36411U 10008A   20252.56168396  .00000053  00000-0  00000-0 0  9997
2 36411   0.0746 111.4479 0002139 329.2019 341.6191  1.00264340 38536
UTC
Height (km)
Latitude
Longitude
Inclination
Orbital Period
UTC large
Height (km)
Speed (km/s)
/
Latitude / Longitude
Inclination (degrees)
Orbital Period (minutes)
Azimuth
Elevation
Range (km)
Doppler Factor
iOS Compass Heading
iOS Angle